| time (UTC) | temp F | wind direction | speed MPH | gust MPH | rain 1hr in | rain 24hr in | rain mn in | humidity % | barometer mb |
| 20260902100025 | 51 | 105 | 0.0 | 2.0 | 0.00 | 0.00 | 0.00 | 94 | 1016.7 |
| 20260902094522 | 52 | 105 | 2.0 | 3.0 | 0.00 | 0.00 | 0.00 | 94 | 1016.8 |
| 20260902093022 | 52 | 105 | 0.0 | 2.0 | 0.00 | 0.00 | 0.00 | 94 | 1016.9 |
| 20260902091520 | 52 | 105 | 0.0 | 2.0 | 0.00 | 0.00 | 0.00 | 94 | 1017.1 |
| 20260902090018 | 53 | 105 | 0.0 | 4.0 | 0.00 | 0.00 | 0.00 | 94 | 1017.0 |
| 20260902084517 | 53 | 105 | 0.0 | 0.0 | 0.00 | 0.00 | 0.00 | 94 | 1017.1 |
| 20260902083016 | 53 | 105 | 0.0 | 0.0 | 0.00 | 0.00 | 0.00 | 93 | 1017.1 |
| 20260902081513 | 54 | 105 | 0.0 | 0.0 | 0.00 | 0.00 | 0.00 | 93 | 1017.1 |
| 20260902080011 | 54 | 105 | 0.0 | 0.0 | 0.00 | 0.00 | 0.00 | 93 | 1017.0 |
| 20260902074510 | 55 | 105 | 0.0 | 0.0 | 0.00 | 0.00 | 0.00 | 93 | 1016.9 |
| 20260902073006 | 55 | 105 | 0.0 | 0.0 | 0.00 | 0.00 | 0.00 | 92 | 1016.8 |
| 20260902071508 | 56 | 105 | 0.0 | 0.0 | 0.00 | 0.00 | 0.00 | 93 | 1016.8 |
| 20260902070005 | 56 | 105 | 0.0 | 0.0 | 0.00 | 0.00 | 0.00 | 92 | 1016.8 |
| 20260902064600 | 57 | 105 | 0.0 | 0.0 | 0.00 | 0.00 | 0.00 | 92 | 1016.8 |
| 20260902063104 | 58 | 105 | 0.0 | 0.0 | 0.00 | 0.00 | 0.00 | 92 | 1016.8 |
| 20260902060106 | 58 | 105 | 0.0 | 3.0 | 0.00 | 0.00 | 0.00 | 92 | 1016.9 |
| 20260902054558 | 59 | 105 | 0.0 | 3.0 | 0.00 | 0.00 | 0.00 | 92 | 1016.9 |
| 20260902053058 | 59 | 105 | 2.0 | 3.0 | 0.00 | 0.00 | 0.00 | 92 | 1017.0 |
| 20260902051601 | 59 | 105 | 0.0 | 3.0 | 0.00 | 0.00 | 0.00 | 91 | 1017.1 |
| 20260902050104 | 60 | 105 | 1.0 | 4.0 | 0.00 | 0.00 | 0.00 | 91 | 1017.0 |
| 20260902044601 | 60 | 105 | 1.0 | 6.0 | 0.00 | 0.00 | 0.00 | 91 | 1017.0 |
| 20260902043056 | 60 | 105 | 4.0 | 9.0 | 0.00 | 0.00 | 0.00 | 90 | 1016.9 |
| 20260902041557 | 60 | 105 | 2.0 | 8.0 | 0.00 | 0.00 | 0.00 | 90 | 1016.8 |
| 20260902040055 | 60 | 105 | 4.0 | 7.0 | 0.00 | 0.00 | 0.00 | 90 | 1016.6 |
| 20260902034554 | 60 | 115 | 4.0 | 8.0 | 0.00 | 0.00 | 0.00 | 89 | 1016.5 |
| 20260902033054 | 60 | 112 | 1.0 | 9.0 | 0.00 | 0.00 | 0.00 | 88 | 1016.2 |
| 20260902031605 | 61 | 78 | 5.0 | 11.0 | 0.00 | 0.00 | 0.00 | 87 | 1016.0 |
| 20260902030053 | 61 | 84 | 6.0 | 11.0 | 0.00 | 0.00 | 0.00 | 87 | 1016.2 |
| 20260902024558 | 61 | 94 | 7.0 | 14.0 | 0.00 | 0.00 | 0.00 | 87 | 1016.0 |
| 20260902023054 | 61 | 84 | 5.0 | 13.0 | 0.00 | 0.00 | 0.00 | 87 | 1016.0 |
| 20260902021601 | 62 | 87 | 4.0 | 12.0 | 0.00 | 0.00 | 0.00 | 85 | 1016.0 |
| 20260902020058 | 63 | 93 | 4.0 | 12.0 | 0.00 | 0.00 | 0.00 | 82 | 1016.0 |
| 20260902014550 | 64 | 80 | 6.0 | 13.0 | 0.00 | 0.00 | 0.00 | 81 | 1016.0 |
| 20260902013049 | 63 | 105 | 8.0 | 13.0 | 0.00 | 0.00 | 0.00 | 80 | 1016.0 |
| 20260902011548 | 64 | 94 | 6.0 | 11.0 | 0.00 | 0.00 | 0.00 | 79 | 1016.0 |
| 20260902010047 | 64 | 52 | 4.0 | 11.0 | 0.00 | 0.00 | 0.00 | 79 | 1016.1 |
| 20260902004546 | 64 | 120 | 6.0 | 14.0 | 0.00 | 0.00 | 0.00 | 77 | 1016.2 |
| 20260902003044 | 65 | 87 | 7.0 | 15.0 | 0.00 | 0.00 | 0.00 | 76 | 1016.1 |
| 20260902001545 | 65 | 106 | 6.0 | 14.0 | 0.00 | 0.00 | 0.00 | 76 | 1016.0 |
| 20260902000042 | 65 | 103 | 9.0 | 15.0 | 0.00 | 0.00 | 0.00 | 76 | 1016.0 |
| 20260901234541 | 65 | 91 | 8.0 | 15.0 | 0.00 | 0.00 | 0.00 | 75 | 1016.1 |
| 20260901233040 | 65 | 67 | 9.0 | 14.0 | 0.00 | 0.00 | 0.00 | 73 | 1016.2 |
| 20260901231540 | 65 | 76 | 10.0 | 16.0 | 0.00 | 0.00 | 0.00 | 73 | 1016.2 |
| 20260901230055 | 65 | 105 | 9.0 | 17.0 | 0.00 | 0.00 | 0.00 | 74 | 1016.2 |
| 20260901224539 | 65 | 84 | 7.0 | 15.0 | 0.00 | 0.00 | 0.00 | 72 | 1016.2 |
| 20260901223049 | 66 | 60 | 8.0 | 17.0 | 0.00 | 0.00 | 0.00 | 69 | 1016.3 |
| 20260901221538 | 66 | 57 | 7.0 | 15.0 | 0.00 | 0.00 | 0.00 | 70 | 1016.4 |
| 20260901220057 | 66 | 51 | 9.0 | 13.0 | 0.00 | 0.00 | 0.00 | 70 | 1016.5 |
| 20260901214538 | 66 | 116 | 9.0 | 18.0 | 0.00 | 0.00 | 0.00 | 72 | 1016.6 |
| 20260901213044 | 65 | 102 | 8.0 | 16.0 | 0.00 | 0.00 | 0.00 | 71 | 1016.7 |
| 20260901211535 | 65 | 117 | 8.0 | 18.0 | 0.00 | 0.00 | 0.00 | 70 | 1016.7 |
| 20260901210035 | 65 | 104 | 10.0 | 18.0 | 0.00 | 0.00 | 0.00 | 68 | 1016.8 |
| 20260901204539 | 66 | 71 | 8.0 | 16.0 | 0.00 | 0.00 | 0.00 | 69 | 1017.0 |
| 20260901203038 | 66 | 112 | 8.0 | 17.0 | 0.00 | 0.00 | 0.00 | 69 | 1017.0 |
| 20260901201538 | 66 | 70 | 9.0 | 15.0 | 0.00 | 0.00 | 0.00 | 68 | 1017.0 |
| 20260901200032 | 66 | 69 | 7.0 | 15.0 | 0.00 | 0.00 | 0.00 | 68 | 1017.0 |
| 20260901194534 | 66 | 72 | 7.0 | 15.0 | 0.00 | 0.00 | 0.00 | 69 | 1017.0 |
| 20260901193034 | 66 | 102 | 9.0 | 15.0 | 0.00 | 0.00 | 0.00 | 70 | 1017.1 |
| 20260901191530 | 66 | 75 | 7.0 | 13.0 | 0.00 | 0.00 | 0.00 | 70 | 1017.1 |
| 20260901190027 | 65 | 97 | 7.0 | 12.0 | 0.00 | 0.00 | 0.00 | 70 | 1017.2 |
| 20260901184541 | 65 | 102 | 8.0 | 12.0 | 0.00 | 0.00 | 0.00 | 71 | 1017.1 |
| 20260901183024 | 65 | 122 | 7.0 | 13.0 | 0.00 | 0.00 | 0.00 | 72 | 1017.1 |
| 20260901181538 | 64 | 114 | 5.0 | 10.0 | 0.00 | 0.00 | 0.00 | 73 | 1017.2 |
| 20260901180023 | 65 | 94 | 8.0 | 11.0 | 0.00 | 0.00 | 0.00 | 72 | 1017.2 |
| 20260901174542 | 64 | 105 | 6.0 | 13.0 | 0.00 | 0.00 | 0.00 | 73 | 1017.2 |
| 20260901173020 | 64 | 121 | 7.0 | 12.0 | 0.00 | 0.00 | 0.00 | 72 | 1017.1 |
| 20260901171519 | 64 | 102 | 6.0 | 11.0 | 0.00 | 0.00 | 0.00 | 73 | 1017.0 |
| 20260901170017 | 64 | 87 | 4.0 | 9.0 | 0.00 | 0.00 | 0.00 | 74 | 1016.9 |
| 20260901164516 | 63 | 93 | 4.0 | 10.0 | 0.00 | 0.00 | 0.00 | 76 | 1016.9 |
| 20260901163016 | 64 | 93 | 4.0 | 8.0 | 0.00 | 0.00 | 0.00 | 75 | 1016.6 |
| 20260901161513 | 64 | 72 | 3.0 | 5.0 | 0.00 | 0.00 | 0.00 | 74 | 1016.6 |
| 20260901160018 | 64 | 274 | 1.0 | 3.0 | 0.00 | 0.00 | 0.00 | 76 | 1016.6 |
| 20260901154508 | 63 | 274 | 0.0 | 2.0 | 0.00 | 0.00 | 0.00 | 78 | 1016.4 |
| 20260901153004 | 62 | 274 | 1.0 | 3.0 | 0.00 | 0.00 | 0.00 | 83 | 1016.5 |
| 20260901151500 | 60 | 274 | 1.0 | 4.0 | 0.00 | 0.00 | 0.00 | 87 | 1016.4 |
| 20260901150103 | 58 | 274 | 1.0 | 4.0 | 0.00 | 0.00 | 0.00 | 90 | 1016.3 |
| 20260901144556 | 57 | 274 | 2.0 | 6.0 | 0.00 | 0.00 | 0.00 | 91 | 1016.2 |
| 20260901143119 | 55 | 274 | 1.0 | 3.0 | 0.00 | 0.00 | 0.00 | 93 | 1016.1 |
| 20260901141554 | 54 | 274 | 2.0 | 4.0 | 0.00 | 0.00 | 0.00 | 94 | 1016.1 |
| 20260901140055 | 54 | 274 | 2.0 | 3.0 | 0.00 | 0.00 | 0.00 | 93 | 1015.8 |
| 20260901134550 | 54 | 276 | 2.0 | 4.0 | 0.00 | 0.00 | 0.00 | 93 | 1015.7 |
| 20260901133052 | 54 | 276 | 2.0 | 4.0 | 0.00 | 0.00 | 0.00 | 94 | 1015.7 |
| 20260901131552 | 54 | 65 | 1.0 | 3.0 | 0.00 | 0.00 | 0.00 | 93 | 1015.7 |
| 20260901130047 | 54 | 65 | 0.0 | 3.0 | 0.00 | 0.00 | 0.00 | 93 | 1015.7 |
| 20260901124546 | 54 | 65 | 1.0 | 3.0 | 0.00 | 0.00 | 0.00 | 93 | 1015.7 |
| 20260901123051 | 55 | 65 | 1.0 | 2.0 | 0.00 | 0.00 | 0.00 | 92 | 1015.6 |
| 20260901121545 | 55 | 65 | 1.0 | 3.0 | 0.00 | 0.00 | 0.00 | 92 | 1015.5 |
| 20260901120048 | 55 | 65 | 0.0 | 0.0 | 0.00 | 0.00 | 0.00 | 92 | 1015.3 |
| 20260901114545 | 55 | 65 | 1.0 | 2.0 | 0.00 | 0.00 | 0.00 | 91 | 1015.2 |
| 20260901113041 | 56 | 65 | 0.0 | 2.0 | 0.00 | 0.00 | 0.00 | 90 | 1015.2 |
| 20260901111542 | 56 | 65 | 1.0 | 2.0 | 0.00 | 0.00 | 0.00 | 90 | 1015.3 |
| 20260901110038 | 57 | 65 | 0.0 | 1.0 | 0.00 | 0.00 | 0.00 | 89 | 1015.2 |
| 20260901104542 | 58 | 65 | 0.0 | 0.0 | 0.00 | 0.00 | 0.00 | 89 | 1015.1 |
| 20260901103036 | 58 | 65 | 0.0 | 2.0 | 0.00 | 0.00 | 0.00 | 90 | 1015.2 |
| 20260901101536 | 58 | 65 | 1.0 | 3.0 | 0.00 | 0.00 | 0.00 | 90 | 1015.1 |